Oklahoma City, OK

9:12 PM CDT on July 20, 2017 (GMT -0500)
Will Rogers World

Weather History for KOKC - March, 2013

Change the Weather History Date:

Thursday, March 7, 2013

  Actual Average Record
Temperature  
Mean Temperature 54 °F 50 °F  
Max Temperature 71 °F 61 °F 83 °F (1925)
Min Temperature 36 °F 39 °F 7 °F (1920)
Degree Days  
Heating Degree Days 11 16  
Month to date heating degree days 142 116  
Since 1 July heating degree days 2711 2866  
Cooling Degree Days 0 0  
Month to date cooling degree days 0 0  
Year to date cooling degree days 2 1  
Growing Degree Days 4 (Base 50)    
Moisture  
Dew Point 24 °F    
Average Humidity 35    
Maximum Humidity 52    
Minimum Humidity 18    
Precipitation  
Precipitation 0.00 in 0.09 in 1.33 in (1905)
Month to date precipitation T 0.62  
Year to date precipitation 3.86 3.59  
Snow  
Snow 0.00 in 0.10 in 0.30 in (1967)
Month to date snowfall 0.0 0.3  
Since 1 July snowfall 7.7 7.0  
Snow Depth -    
Sea Level Pressure  
Sea Level Pressure 30.08 in    
Wind  
Wind Speed 17 mph (SSE)    
Max Wind Speed 30 mph    
Max Gust Speed 38 mph    
Visibility 10 miles    
Events      
T = Trace of Precipitation, MM = Missing Value Source: NWS Daily Summary

Daily Weather History Graph

Daily Weather History Graph

Search for Another Location

Airport or City:

Trip Planner

Search our weather history database for the weather conditions in past years. The results will help you decide how hot, cold, wet, or windy it might be!

Date:

Astronomy

Mar. 07, 2013 Rise Set
Actual Time 6:51 AM CST 6:31 PM CST
Civil Twilight 6:26 AM CST 6:56 PM CST
Nautical Twilight 5:56 AM CST 7:26 PM CST
Astronomical Twilight 5:27 AM CST 7:55 PM CST
Moon 3:44 AM CST (3/7) 2:27 PM CST (3/7)
Length of Visible Light 12h 30m
Length of Day
11h 39m
Waning Crescent, 20% of the Moon is Illuminated
Mar 7
Waning Crescent
Mar 11
New
Mar 19
First Quarter
Mar 27
Full
Apr 2
Last Quarter

Hourly Weather History & Observations

Time (CST) Temp. Windchill Dew Point Humidity Pressure Visibility Wind Dir Wind Speed Gust Speed Precip Events Conditions
12:52 AM 41.0 °F 36.4 °F 21.0 °F 45% 30.17 in 10.0 mi SE 6.9 mph - N/A   Clear
1:52 AM 39.9 °F 33.9 °F 21.0 °F 47% 30.17 in 10.0 mi ESE 9.2 mph - N/A   Clear
2:52 AM 37.9 °F 30.9 °F 21.0 °F 51% 30.15 in 10.0 mi SE 10.4 mph - N/A   Clear
3:52 AM 39.0 °F 32.3 °F 19.9 °F 46% 30.14 in 10.0 mi SE 10.4 mph - N/A   Clear
4:52 AM 37.9 °F 30.5 °F 21.0 °F 51% 30.12 in 10.0 mi SE 11.5 mph - N/A   Clear
5:52 AM 37.0 °F 31.0 °F 21.0 °F 52% 30.13 in 10.0 mi SE 8.1 mph - N/A   Clear
6:52 AM 37.9 °F 30.9 °F 21.0 °F 51% 30.14 in 10.0 mi SSE 10.4 mph - N/A   Partly Cloudy
7:52 AM 44.1 °F 36.5 °F 21.0 °F 40% 30.14 in 10.0 mi SSE 17.3 mph - N/A   Partly Cloudy
8:52 AM 48.2 °F - 21.2 °F 34% 30.13 in 10.0 mi SSE 19.6 mph 24.2 mph N/A   Partly Cloudy
9:52 AM 54.0 °F - 23.0 °F 30% 30.12 in 10.0 mi South 25.3 mph 31.1 mph N/A   Clear
10:52 AM 61.0 °F - 23.0 °F 23% 30.10 in 10.0 mi South 26.5 mph 34.5 mph N/A   Clear
11:52 AM 64.9 °F - 23.0 °F 20% 30.09 in 10.0 mi South 26.5 mph 32.2 mph N/A   Clear
12:52 PM 66.9 °F - 24.1 °F 20% 30.07 in 10.0 mi South 26.5 mph 34.5 mph N/A   Clear
1:52 PM 69.1 °F - 25.0 °F 19% 30.04 in 10.0 mi South 25.3 mph 31.1 mph N/A   Clear
2:52 PM 70.0 °F - 26.1 °F 19% 30.03 in 10.0 mi South 23.0 mph 29.9 mph N/A   Clear
3:52 PM 70.0 °F - 25.0 °F 18% 30.02 in 10.0 mi South 19.6 mph 28.8 mph N/A   Clear
4:52 PM 69.1 °F - 26.1 °F 20% 30.01 in 10.0 mi South 19.6 mph 28.8 mph N/A   Clear
5:52 PM 64.9 °F - 27.0 °F 24% 30.02 in 10.0 mi SSE 19.6 mph 26.5 mph N/A   Clear
6:52 PM 61.0 °F - 27.0 °F 27% 30.03 in 10.0 mi SSE 15.0 mph - N/A   Clear
7:52 PM 59.0 °F - 27.0 °F 29% 30.04 in 10.0 mi SSE 13.8 mph - N/A   Clear
8:52 PM 57.0 °F - 28.9 °F 34% 30.04 in 10.0 mi SSE 18.4 mph - N/A   Scattered Clouds
9:52 PM 55.9 °F - 28.9 °F 36% 30.04 in 10.0 mi SSE 19.6 mph 27.6 mph N/A   Scattered Clouds
10:52 PM 55.9 °F - 28.0 °F 34% 30.05 in 10.0 mi South 16.1 mph 24.2 mph N/A   Scattered Clouds
11:52 PM 55.4 °F - 28.4 °F 36% 30.06 in 10.0 mi South 13.8 mph 24.2 mph N/A   Mostly Cloudy